Temperature
21 21 21 21 21 21 23 24 24 24 24 24 24 24 24 22 21 19 18 19 18 18 18 18 18 18 17 17 17 17 17 17 17 17 17 17 17 17 17 17 17 17 17 17 17 17 17 17 18
21 21 21 21 21 22 23 24 24 24 24 24 24 24 23 22 20 19 18 18 18 18 18 18 18 18 17 17 17 17 17 17 17 17 17 17 17 17 17 17 17 17 17 17 17 17 17 17 17
21 21 22 22 23 23 22 23 24 24 24 24 24 23 22 21 20 19 18 18 18 18 18 18 17 17 17 17 17 17 17 17 17 17 17 17 17 17 17 17 17 17 17 17 17 17 17 17 17
21 22 23 23 23 23 23 24 24 24 24 24 24 23 21 20 20 19 18 18 18 17 17 17 17 17 17 17 17 17 17 17 17 17 17 17 17 17 17 17 17 17 17 17 17 17 17 17 17
22 22 22 23 23 24 24 25 25 24 24 24 24 22 21 20 19 19 18 18 18 17 17 17 17 17 17 17 17 17 17 17 17 17 17 17 16 17 17 17 17 17 17 17 17 17 17 17 17
22 23 22 22 23 24 24 25 25 24 24 24 23 22 20 20 19 19 18 18 18 17 17 17 17 17 17 17 17 17 17 17 17 17 17 17 17 17 17 17 17 17 17 17 17 17 17 17 17
22 22 23 23 23 23 24 25 24 24 24 24 23 22 20 19 19 19 18 18 18 17 17 17 17 17 17 17 17 17 17 17 17 17 17 17 17 17 17 17 17 17 17 17 17 17 17 17 17
23 23 23 23 23 23 24 24 24 24 24 23 23 22 20 19 19 19 18 18 18 17 17 17 17 17 17 17 17 17 17 17 17 17 17 17 16 16 16 16 16 16 16 16 16 16 16 17 17
23 22 22 23 23 23 24 24 24 23 23 23 22 21 20 20 19 19 18 18 18 18 17 17 17 17 17 17 17 17 17 17 17 17 17 17 16 16 16 16 16 16 16 16 16 16 16 16 16
24 22 23 24 24 24 24 24 23 23 23 23 22 21 20 20 19 19 18 18 18 18 17 17 17 17 17 17 17 17 17 17 17 17 17 16 16 16 16 16 16 16 16 16 16 16 16 16 16
24 23 24 24 24 24 24 24 23 23 22 22 22 21 20 20 19 19 19 18 18 18 18 18 17 17 17 17 17 17 16 16 16 16 16 16 16 16 16 16 16 16 16 16 16 16 16 16 16
25 24 24 24 24 24 24 23 23 23 22 22 22 21 20 20 20 19 19 19 18 18 18 18 17 17 17 17 17 17 16 16 16 16 16 16 16 16 16 16 16 16 16 16 16 16 16 16 16
24 24 24 24 24 24 24 23 23 23 22 22 21 21 20 20 20 20 19 19 18 18 18 18 17 17 17 17 17 17 16 16 16 16 16 16 16 16 16 16 16 16 15 15 15 15 15 15 16
24 24 24 24 24 24 24 24 23 23 22 22 22 21 21 20 20 20 19 19 19 18 18 17 17 17 17 17 17 16 16 16 16 16 16 16 16 16 16 16 16 16 15 15 15 15 15 15 15
24 24 24 24 24 24 24 23 23 23 23 22 22 21 21 20 20 20 20 19 19 18 18 17 17 17 17 17 16 16 16 16 16 16 16 16 16 16 16 16 16 15 15 15 15 15 15 15 15
25 24 23 24 25 25 24 22 23 23 23 22 22 21 21 20 20 20 20 19 19 18 18 18 17 17 17 17 16 16 16 16 16 16 16 16 16 16 15 15 15 15 15 15 15 15 14 14 14
23 23 23 24 25 25 24 22 23 23 23 22 22 21 21 20 20 20 19 19 19 19 18 18 17 17 17 17 16 16 16 16 16 16 16 15 15 15 15 15 15 15 15 14 14 14 14 14 14
23 24 24 24 25 25 23 23 23 23 23 22 22 21 21 20 20 19 19 19 19 18 18 18 17 17 17 16 16 16 16 16 15 15 15 15 15 15 15 15 14 14 14 14 14 14 14 14 14
24 24 24 24 25 24 23 23 23 23 23 22 22 21 21 21 20 19 19 19 19 18 18 18 17 17 17 16 16 16 16 15 15 15 15 15 15 15 15 14 14 14 14 14 14 14 14 14 14
25 24 24 25 25 24 23 23 24 23 23 22 22 22 21 21 20 19 19 18 18 18 18 18 17 17 16 16 16 15 15 15 15 15 14 14 14 14 14 14 14 14 14 13 13 13 13 13 13
25 24 24 24 24 24 23 23 23 24 23 22 22 22 22 21 20 19 18 18 18 18 17 17 17 17 16 16 16 15 15 15 15 14 14 14 14 14 14 14 14 13 13 13 13 13 13 13 13
24 25 25 24 23 23 23 22 23 23 23 22 22 22 21 21 20 19 18 18 17 17 17 17 17 16 16 16 15 15 15 14 14 14 14 14 14 14 13 13 13 13 13 13 13 13 13 12 13
24 25 25 24 23 23 24 23 23 24 22 22 22 21 21 21 20 19 18 18 17 17 17 17 16 16 16 16 15 15 14 14 14 14 14 14 13 13 13 13 13 13 13 13 12 12 12 12 12
25 25 24 24 23 22 23 23 22 23 23 22 22 21 21 20 20 19 18 17 17 17 17 16 16 16 16 15 15 15 14 14 14 14 14 13 13 13 13 13 13 13 12 12 12 12 12 12 12
24 23 22 22 21 22 24 23 22 23 24 23 22 21 21 20 20 19 18 17 17 16 16 16 16 15 15 15 15 14 14 14 14 14 14 13 13 13 13 13 13 12 12 12 12 12 12 12 12
24 23 21 21 21 23 24 23 23 23 23 23 22 21 21 20 19 19 18 17 17 16 16 15 15 15 15 15 15 14 14 14 14 14 13 13 13 13 13 13 13 12 12 12 12 12 12 12 12
23 23 24 22 22 22 22 23 22 23 23 22 22 21 20 20 19 18 18 17 16 16 16 15 15 15 15 14 14 14 14 14 14 13 13 13 13 13 13 13 12 12 12 12 12 12 12 12 12
24 24 23 22 21 21 22 22 22 22 22 22 22 21 20 20 19 18 17 17 16 16 15 15 15 15 14 14 14 14 14 14 14 13 13 13 13 13 13 12 12 12 12 12 12 12 12 12 12
23 23 23 22 22 21 20 21 23 22 22 22 22 21 20 19 19 18 17 17 16 15 15 15 14 14 14 14 14 14 14 14 13 13 13 13 13 13 13 12 12 12 12 12 12 12 12 11 12
23 23 22 21 21 21 21 21 23 22 22 22 22 21 20 19 19 18 17 16 16 15 15 15 14 14 14 14 14 13 14 13 13 13 13 13 13 13 12 12 12 12 12 12 12 12 11 11 11
Wind_Speed
8 10 7 3 2 2 1 4 6 5 6 8 8 7 9 11 8 7 3 4 7 9 11 12 11 11 11 10 10 10 10 10 10 10 10 10 10 11 11 10 10 10 11 11 10 10 10 10 9
8 6 4 3 2 0 3 5 8 8 7 5 6 8 10 10 9 7 3 5 6 10 12 12 11 11 11 10 10 10 9 9 9 9 9 10 10 10 10 11 10 10 10 10 10 10 10 10 9
10 7 3 2 2 2 4 6 8 8 5 4 5 8 7 6 7 5 5 5 8 10 13 13 12 11 10 10 10 10 9 9 9 9 9 9 10 10 10 10 10 10 10 10 9 10 10 10 9
5 3 3 1 2 5 5 6 6 5 4 4 5 7 7 7 5 7 7 7 8 10 13 12 12 11 11 11 10 10 10 10 10 9 9 9 10 9 10 10 10 9 9 9 9 9 9 9 9
4 3 2 1 1 5 5 5 5 5 4 6 7 8 8 8 9 9 7 7 7 9 12 12 12 11 11 11 11 11 10 10 10 9 9 9 9 10 9 9 9 9 9 9 9 9 9 9 8
2 2 1 0 3 4 4 3 4 5 5 6 6 8 7 8 8 7 7 6 7 9 10 11 11 10 10 10 10 10 10 10 9 9 9 9 9 9 9 9 10 10 9 9 8 8 8 8 8
2 2 1 1 3 4 4 4 4 4 5 5 4 6 6 7 7 7 7 6 7 7 8 9 9 9 10 10 9 9 9 9 8 8 8 8 8 9 9 10 9 9 9 8 8 7 7 7 6
3 2 1 1 3 3 4 4 5 5 5 5 4 5 6 8 7 7 7 6 5 5 6 7 7 9 9 9 8 8 7 7 7 6 6 6 6 7 8 8 8 8 8 7 6 6 5 5 5
3 1 1 2 2 3 3 4 4 4 5 5 7 9 9 10 9 7 6 5 5 5 4 5 5 6 8 8 8 6 5 5 5 4 4 4 4 5 6 7 7 7 6 6 5 4 3 3 3
2 1 1 2 2 3 4 4 2 3 5 5 8 9 10 9 7 7 6 6 5 5 5 5 4 4 5 6 7 5 4 4 4 4 4 3 3 5 6 6 6 5 4 3 1 0 0 1 1
2 1 1 3 3 3 3 3 2 2 2 3 6 8 8 7 6 5 5 5 5 5 4 5 4 5 5 3 4 3 3 3 2 3 4 4 5 5 5 4 3 3 2 1 1 1 0 1 2
3 2 1 2 2 2 1 2 2 3 3 3 6 8 8 6 6 6 5 6 5 5 5 4 4 5 5 4 3 3 2 2 2 3 5 4 2 2 2 2 2 2 2 1 1 1 3 4 5
2 2 1 1 1 1 1 1 1 3 4 4 6 7 7 6 5 6 5 5 6 5 5 4 4 4 5 4 2 3 2 2 3 4 5 5 2 2 2 2 3 3 3 3 2 3 4 4 5
2 1 2 2 3 3 2 2 2 2 4 5 6 6 6 6 6 6 6 5 6 5 5 4 3 4 4 4 3 3 3 3 4 4 4 5 4 2 2 2 3 3 4 4 3 3 3 3 3
3 3 4 4 5 4 3 3 4 5 6 6 6 6 7 5 5 5 6 6 6 6 6 5 4 4 4 4 3 3 3 4 3 3 4 5 5 4 3 3 3 3 4 5 4 4 3 3 3
6 6 5 5 6 5 4 3 3 4 6 5 5 5 6 5 5 5 5 5 6 6 6 6 4 4 4 4 3 3 3 4 3 4 4 5 5 6 4 3 3 4 5 3 3 3 3 3 3
6 6 5 5 6 4 4 3 2 4 5 5 4 5 6 5 5 4 5 4 5 6 6 7 5 4 4 4 3 3 3 3 4 4 5 5 6 7 5 3 3 4 3 3 3 3 2 2 2
5 4 4 3 5 4 4 4 4 5 5 5 5 5 5 6 6 5 5 4 4 4 5 6 6 4 4 3 2 3 3 3 4 4 4 4 5 6 5 3 3 4 3 3 3 3 2 1 1
6 6 5 4 2 3 4 5 4 5 5 5 6 6 6 6 7 6 5 5 5 4 4 5 6 5 5 3 2 2 2 2 2 2 4 4 4 5 4 3 3 3 3 3 3 2 2 2 1
8 7 7 4 2 3 4 6 6 7 8 7 6 6 6 6 7 7 7 6 5 4 4 4 4 4 5 4 3 2 2 2 2 2 3 3 4 5 4 3 3 2 2 2 2 3 2 2 2
9 7 6 5 4 6 7 7 6 6 7 7 6 5 6 7 8 8 7 6 5 4 4 4 5 5 5 5 3 3 2 2 2 2 1 2 4 4 4 3 3 2 1 1 1 1 1 1 2
7 6 7 7 7 6 6 5 4 5 6 6 5 4 3 4 6 7 7 7 6 4 3 3 5 5 5 5 4 3 3 2 2 2 2 1 2 3 3 2 2 1 1 1 1 2 1 1 2
7 6 8 9 8 9 9 6 4 5 5 6 6 4 3 4 5 7 6 6 5 4 3 3 4 4 5 5 4 3 2 2 2 2 3 2 1 2 2 2 1 1 1 1 1 2 1 1 1
7 8 9 8 7 8 10 5 2 1 3 5 6 6 5 4 5 6 7 6 5 5 4 3 4 4 4 4 4 3 3 3 3 2 2 2 1 1 1 1 1 0 1 1 1 0 0 0 1
7 6 4 4 5 5 3 2 1 4 5 4 4 5 5 5 5 6 7 6 5 5 4 4 4 4 4 3 3 3 3 3 3 3 2 2 1 1 2 1 1 0 1 1 0 0 0 1 1
7 6 4 4 3 3 2 3 3 6 6 5 4 4 4 4 5 6 6 7 6 6 5 5 5 4 4 4 3 3 3 3 2 2 2 2 2 2 2 2 1 1 1 1 0 0 1 1 1
6 6 6 7 9 6 3 1 3 5 5 4 4 5 4 4 5 5 6 6 7 6 5 5 5 5 4 3 3 3 3 3 2 2 2 2 1 1 2 2 2 2 2 1 1 0 1 1 1
8 7 5 4 4 5 3 3 1 4 4 4 4 5 4 4 5 5 5 5 5 5 5 4 4 4 4 3 3 2 2 2 2 2 2 2 2 2 3 3 3 3 3 2 1 0 1 1 1
6 7 5 4 6 4 4 1 2 3 4 3 3 5 5 4 5 5 4 5 5 5 5 4 4 3 3 4 3 3 3 2 2 2 2 2 2 1 2 2 2 2 2 2 2 2 1 1 2
6 8 7 5 6 6 5 2 2 4 4 3 2 4 4 4 4 4 4 5 5 4 4 4 4 3 3 3 3 3 3 2 2 2 2 2 2 2 1 1 1 1 2 3 3 3 2 2 2
Wind_Direction
242 236 239 253 263 244 39 75 80 70 56 47 46 55 61 52 48 86 126 82 90 97 99 94 86 80 76 75 74 73 72 69 68 71 73 73 74 73 69 68 67 66 66 65 63 62 60 56 54
263 253 262 245 254 258 71 78 78 70 73 61 57 58 68 64 70 92 101 79 92 94 93 91 88 82 76 74 73 73 74 75 74 76 78 77 76 75 70 69 69 67 67 66 64 63 60 57 53
261 263 260 258 313 34 76 76 80 77 71 61 62 59 57 62 71 94 107 99 91 90 92 92 88 84 80 75 74 75 75 79 79 77 81 79 76 75 72 70 68 66 67 68 65 62 59 55 51
255 264 251 271 15 52 78 91 94 92 76 67 74 78 73 63 74 104 110 103 96 98 98 99 92 86 82 76 74 75 75 79 81 79 80 78 77 76 74 72 70 68 68 68 68 66 63 56 51
249 256 244 254 62 74 59 69 80 76 73 69 73 84 85 81 90 101 106 102 103 105 106 105 98 92 87 81 76 74 77 78 79 80 77 77 77 76 74 73 72 71 71 71 69 66 63 57 52
276 261 257 96 89 85 75 63 84 91 86 79 88 96 89 99 102 105 106 106 107 110 108 109 109 103 97 89 82 79 79 81 82 84 82 79 78 77 74 76 75 72 70 69 67 66 64 57 50
271 285 276 76 90 83 78 60 64 72 77 66 65 94 109 105 106 110 103 92 93 103 112 118 123 118 108 99 90 86 87 85 87 87 88 86 84 81 79 76 74 72 70 71 70 68 67 59 49
282 291 300 32 83 79 68 70 72 68 72 68 62 88 117 124 123 118 110 105 102 105 113 121 128 129 127 117 105 99 99 100 100 100 101 103 100 93 89 83 80 77 73 73 76 76 73 65 51
273 274 358 32 62 94 95 81 73 78 83 77 75 85 110 124 126 121 117 115 112 109 115 117 121 122 125 124 117 121 121 124 125 125 126 134 135 121 102 92 94 89 83 78 79 84 82 75 55
204 30 35 55 64 98 99 90 90 99 95 93 93 98 113 125 133 136 136 136 135 130 126 119 119 116 110 109 118 133 127 134 149 142 140 150 116 104 103 112 114 110 103 94 90 190 197 227 146
167 158 53 57 62 81 102 102 99 96 81 95 114 122 127 133 137 136 131 124 123 121 117 119 121 108 101 96 110 95 94 100 104 97 100 96 95 102 106 121 139 155 161 164 167 232 234 60 73
164 164 140 90 76 82 93 103 79 68 80 90 108 123 133 140 140 134 123 123 125 122 118 111 119 119 108 94 96 99 86 79 68 69 79 68 66 77 95 90 117 114 92 74 57 58 57 47 51
169 169 139 121 160 152 142 132 108 116 115 121 128 135 143 146 139 129 131 139 132 122 122 126 124 113 109 104 99 93 71 60 70 56 68 74 54 56 63 74 56 63 61 51 32 47 50 41 39
185 173 192 196 194 188 208 202 200 189 160 154 147 148 151 149 146 140 145 143 134 137 139 126 123 112 109 114 114 101 87 75 63 55 56 73 68 52 52 60 56 48 44 44 49 54 52 49 41
214 225 223 205 209 202 216 234 206 189 174 166 164 160 155 161 154 154 155 153 148 148 138 133 136 120 113 111 110 95 87 87 61 54 51 59 66 54 52 55 54 46 46 43 40 42 46 44 39
231 232 230 209 198 189 213 246 194 168 169 164 168 159 153 165 171 163 156 146 148 145 139 136 139 121 104 105 98 83 80 79 70 64 53 46 58 63 53 60 50 42 44 45 41 44 37 34 34
238 239 234 205 193 198 213 248 185 171 170 168 175 167 165 170 177 157 151 150 153 150 145 146 146 133 121 110 103 91 82 79 73 67 52 42 56 69 57 52 49 47 41 39 36 45 47 33 29
258 262 265 232 183 207 216 237 210 191 194 196 190 185 181 180 178 158 149 145 146 146 149 148 139 132 123 109 102 91 85 79 69 67 60 43 48 71 69 50 46 45 53 45 34 45 35 39 24
273 279 287 281 226 246 251 247 224 202 206 204 197 198 192 192 171 160 155 154 142 142 143 139 149 151 135 119 107 101 96 97 86 77 71 53 47 68 77 65 53 49 48 43 36 41 24 8 4
260 269 273 263 245 264 261 264 240 203 203 206 208 202 195 185 167 158 158 158 154 158 157 152 146 138 126 118 120 122 115 106 102 77 65 53 50 53 65 70 80 76 61 39 25 37 21 348 3
262 265 279 291 284 262 263 261 238 208 196 192 209 210 197 180 169 162 164 159 155 161 159 153 144 131 121 126 118 116 109 108 96 91 78 49 58 58 53 54 67 75 71 65 40 78 65 346 341
268 278 280 280 278 268 252 278 261 205 183 176 191 207 186 162 157 153 158 159 155 158 152 155 142 138 137 133 135 142 151 148 140 140 136 113 83 77 64 54 62 74 88 74 357 53 17 34 340
276 282 274 270 272 276 264 258 252 174 171 175 176 182 175 161 155 149 148 145 150 148 147 151 136 129 130 137 139 155 158 145 136 133 136 139 112 86 76 62 57 68 89 78 61 49 12 6 356
273 277 268 257 258 259 257 245 259 176 158 157 164 169 173 167 151 146 145 140 140 133 131 139 133 123 121 133 144 160 148 136 129 141 143 152 146 144 98 71 81 93 103 72 84 102 342 345 336
252 265 265 234 221 241 250 222 208 87 81 94 137 157 159 158 149 148 146 146 142 138 142 143 133 129 134 150 150 158 152 156 162 163 171 168 155 165 184 146 169 128 105 97 100 181 227 251 282
247 242 256 281 280 295 277 218 126 104 88 84 109 136 147 150 149 153 153 149 148 148 154 159 161 157 158 170 173 160 159 167 171 156 162 181 181 173 172 173 187 151 88 54 46 267 245 228 247
257 251 261 283 289 287 263 211 127 116 114 115 118 125 143 157 150 149 146 150 151 155 160 166 167 163 163 176 177 177 178 175 175 178 184 182 199 191 177 188 189 172 147 157 111 355 317 326 283
245 270 274 260 277 280 269 262 198 142 131 135 133 136 142 145 144 141 141 149 152 153 156 162 163 169 166 177 184 189 191 182 176 182 188 187 209 208 195 203 197 185 172 167 147 159 328 320 294
228 240 253 274 270 280 290 337 33 109 114 116 132 134 137 145 150 145 143 146 143 146 156 164 168 168 168 180 188 189 177 176 185 186 194 198 207 212 212 221 205 188 183 174 170 187 207 242 265
252 253 247 249 265 278 284 275 108 105 103 108 111 116 126 128 131 138 143 139 142 157 166 168 169 167 173 177 180 182 179 184 188 206 216 201 196 204 215 217 215 212 203 190 189 205 214 227 253
Height
1491 1491 1492 1494 1495 1497 1496 1490 1486 1488 1490 1492 1491 1492 1495 1499 1504 1514 1514 1512 1512 1510 1510 1509 1509 1509 1509 1509 1510 1510 1510 1511 1511 1512 1512 1513 1513 1514 1514 1514 1515 1515 1515 1516 1516 1516 1516 1516 1516
1491 1493 1494 1494 1496 1502 1499 1490 1490 1490 1492 1493 1493 1494 1497 1502 1507 1510 1512 1513 1512 1512 1511 1510 1511 1511 1511 1511 1511 1511 1511 1512 1512 1513 1513 1514 1514 1515 1515 1515 1516 1516 1516 1517 1517 1517 1517 1517 1517
1492 1493 1494 1492 1494 1499 1499 1491 1491 1492 1494 1494 1495 1497 1501 1506 1509 1511 1512 1513 1513 1513 1512 1512 1512 1512 1512 1512 1512 1512 1513 1513 1513 1514 1515 1515 1515 1516 1516 1516 1517 1517 1517 1517 1518 1518 1518 1517 1518
1494 1494 1493 1494 1496 1492 1491 1491 1491 1493 1494 1495 1496 1500 1505 1509 1510 1512 1513 1514 1514 1514 1513 1513 1513 1513 1513 1513 1513 1513 1514 1514 1514 1515 1515 1516 1516 1517 1517 1517 1518 1518 1518 1518 1519 1519 1518 1518 1518
1494 1494 1494 1497 1494 1491 1490 1491 1492 1494 1495 1496 1498 1502 1508 1511 1511 1513 1514 1514 1515 1515 1514 1514 1514 1514 1514 1514 1514 1515 1515 1515 1515 1516 1516 1517 1517 1518 1518 1518 1519 1519 1519 1519 1519 1519 1519 1519 1519
1495 1492 1498 1501 1496 1492 1492 1492 1493 1495 1496 1498 1500 1503 1509 1512 1512 1514 1515 1515 1516 1516 1516 1515 1515 1515 1515 1515 1516 1516 1516 1516 1517 1517 1518 1518 1519 1519 1519 1519 1520 1520 1520 1520 1520 1520 1520 1520 1520
1495 1494 1496 1497 1497 1495 1493 1494 1495 1496 1497 1499 1501 1504 1509 1512 1513 1514 1515 1516 1517 1517 1517 1517 1517 1517 1517 1517 1517 1517 1517 1518 1518 1519 1519 1519 1520 1520 1521 1521 1521 1521 1521 1521 1521 1521 1521 1521 1521
1493 1494 1495 1496 1498 1498 1495 1496 1497 1498 1500 1502 1502 1505 1510 1512 1514 1515 1516 1517 1518 1518 1518 1518 1518 1518 1518 1518 1518 1519 1519 1519 1520 1520 1520 1521 1521 1522 1522 1522 1522 1522 1522 1522 1522 1522 1522 1522 1522
1494 1497 1500 1498 1497 1497 1496 1497 1498 1500 1501 1502 1504 1506 1509 1512 1514 1515 1516 1517 1518 1519 1519 1519 1520 1520 1520 1520 1520 1520 1520 1521 1521 1521 1522 1522 1523 1523 1523 1523 1523 1523 1523 1523 1523 1523 1523 1523 1523
1493 1499 1498 1494 1494 1495 1496 1498 1499 1500 1502 1504 1506 1508 1510 1512 1514 1515 1516 1517 1518 1519 1520 1520 1521 1521 1521 1521 1521 1521 1521 1522 1522 1522 1523 1523 1524 1524 1525 1525 1524 1524 1525 1525 1525 1524 1524 1524 1524
1492 1496 1494 1494 1495 1496 1497 1499 1500 1500 1503 1504 1506 1508 1510 1512 1514 1515 1516 1517 1519 1520 1521 1521 1521 1522 1522 1522 1522 1522 1523 1523 1523 1524 1524 1525 1525 1525 1526 1525 1525 1525 1525 1525 1525 1525 1525 1525 1525
1492 1493 1494 1495 1496 1497 1498 1499 1501 1502 1504 1505 1506 1508 1510 1512 1513 1515 1516 1517 1518 1520 1521 1522 1522 1522 1522 1523 1523 1523 1523 1524 1524 1525 1525 1525 1526 1526 1526 1526 1526 1526 1526 1526 1526 1526 1526 1526 1526
1493 1494 1494 1496 1497 1498 1499 1500 1501 1503 1504 1505 1506 1508 1510 1512 1513 1515 1516 1517 1518 1519 1521 1521 1522 1523 1523 1523 1524 1524 1524 1525 1525 1525 1525 1525 1526 1527 1527 1527 1527 1527 1527 1527 1527 1527 1527 1527 1527
1493 1493 1494 1495 1496 1497 1498 1499 1501 1502 1503 1505 1506 1508 1510 1511 1513 1514 1516 1517 1519 1519 1520 1521 1522 1523 1523 1524 1524 1525 1525 1525 1525 1526 1526 1526 1526 1527 1527 1527 1527 1527 1527 1527 1527 1527 1527 1527 1527
1493 1494 1494 1494 1494 1495 1497 1499 1498 1500 1501 1503 1505 1507 1509 1511 1512 1514 1515 1517 1518 1519 1520 1521 1522 1523 1523 1524 1524 1525 1525 1525 1526 1526 1527 1527 1527 1527 1527 1527 1527 1527 1527 1527 1527 1527 1527 1527 1527
1491 1494 1498 1492 1491 1493 1499 1504 1497 1498 1499 1501 1504 1505 1507 1510 1511 1513 1515 1516 1517 1518 1519 1520 1522 1522 1523 1524 1524 1525 1525 1526 1526 1526 1527 1527 1527 1527 1527 1527 1527 1527 1527 1527 1527 1527 1527 1527 1527
1494 1497 1496 1491 1488 1490 1495 1499 1496 1497 1498 1500 1502 1504 1506 1508 1510 1511 1513 1514 1516 1518 1519 1519 1521 1522 1523 1523 1524 1525 1525 1526 1526 1526 1527 1527 1527 1527 1527 1527 1527 1527 1527 1527 1527 1527 1527 1527 1527
1496 1493 1491 1491 1488 1488 1493 1495 1494 1495 1497 1498 1500 1502 1504 1505 1508 1509 1511 1513 1515 1516 1518 1518 1520 1521 1522 1523 1524 1524 1525 1526 1526 1526 1526 1527 1527 1527 1527 1527 1527 1527 1527 1527 1527 1527 1527 1527 1527
1488 1490 1492 1489 1484 1488 1491 1492 1491 1492 1494 1495 1497 1499 1501 1503 1505 1507 1509 1511 1513 1515 1516 1517 1519 1519 1520 1522 1523 1523 1524 1525 1525 1526 1526 1527 1527 1527 1526 1527 1527 1527 1527 1527 1527 1527 1527 1527 1527
1486 1490 1490 1486 1483 1487 1490 1489 1486 1487 1490 1492 1494 1496 1498 1500 1503 1505 1507 1509 1511 1513 1515 1516 1517 1518 1519 1521 1522 1523 1524 1524 1525 1525 1526 1526 1526 1526 1527 1527 1526 1527 1526 1526 1526 1527 1527 1527 1527
1485 1487 1488 1489 1485 1485 1488 1490 1484 1482 1485 1488 1491 1493 1495 1498 1500 1503 1505 1507 1510 1512 1513 1515 1516 1517 1518 1519 1521 1522 1523 1524 1524 1525 1525 1526 1526 1526 1526 1526 1526 1526 1526 1526 1526 1526 1526 1527 1527
1488 1482 1483 1485 1490 1493 1488 1500 1486 1480 1482 1485 1488 1491 1493 1496 1498 1501 1503 1505 1508 1510 1512 1514 1515 1516 1517 1518 1519 1520 1521 1522 1523 1524 1525 1525 1525 1526 1526 1526 1526 1526 1526 1526 1526 1526 1526 1526 1526
1483 1479 1481 1483 1487 1491 1486 1493 1487 1477 1483 1484 1486 1489 1492 1494 1497 1499 1501 1504 1506 1508 1510 1512 1513 1515 1516 1517 1518 1519 1521 1522 1523 1524 1524 1524 1525 1525 1525 1525 1526 1526 1525 1525 1525 1525 1525 1526 1526
1478 1480 1480 1481 1487 1499 1484 1488 1491 1480 1479 1480 1483 1486 1490 1492 1495 1497 1500 1502 1504 1506 1508 1510 1511 1513 1514 1515 1516 1518 1519 1520 1521 1522 1523 1523 1524 1524 1524 1524 1525 1525 1525 1525 1525 1525 1525 1525 1525
1480 1489 1499 1499 1500 1495 1476 1483 1486 1476 1475 1477 1481 1484 1488 1490 1493 1496 1498 1501 1503 1504 1506 1508 1510 1511 1512 1514 1515 1516 1518 1519 1520 1521 1522 1522 1523 1523 1523 1523 1524 1524 1524 1524 1524 1524 1524 1524 1524
1481 1486 1501 1507 1501 1490 1479 1484 1481 1474 1476 1478 1481 1484 1487 1489 1492 1495 1497 1499 1501 1502 1504 1506 1508 1509 1511 1512 1514 1515 1516 1517 1518 1519 1520 1521 1522 1522 1522 1523 1523 1523 1523 1523 1523 1522 1523 1523 1523
1481 1482 1480 1490 1489 1493 1487 1480 1477 1473 1476 1478 1481 1484 1486 1489 1491 1493 1495 1497 1499 1500 1502 1504 1506 1508 1509 1510 1512 1513 1514 1515 1517 1518 1518 1519 1520 1520 1521 1521 1522 1522 1522 1522 1521 1521 1521 1521 1521
1476 1477 1482 1490 1500 1502 1491 1485 1484 1478 1478 1478 1480 1483 1486 1488 1490 1492 1494 1495 1497 1499 1501 1502 1504 1506 1507 1508 1509 1511 1512 1513 1514 1516 1516 1517 1518 1519 1519 1519 1520 1520 1520 1520 1520 1520 1520 1520 1520
1478 1480 1481 1485 1486 1498 1501 1494 1475 1476 1476 1478 1479 1482 1485 1487 1489 1491 1493 1494 1496 1498 1499 1501 1502 1504 1505 1506 1507 1508 1510 1511 1512 1513 1514 1515 1516 1517 1517 1518 1518 1518 1518 1518 1518 1518 1518 1518 1518
1473 1476 1479 1492 1491 1486 1493 1494 1473 1474 1475 1477 1479 1481 1484 1486 1489 1490 1492 1493 1495 1496 1498 1499 1500 1501 1502 1503 1505 1506 1507 1508 1509 1510 1511 1512 1513 1514 1515 1515 1516 1516 1516 1516 1516 1516 1516 1516 1516